Regional Weather Roundup
Issued by NWS Northern Indiana

Home | Current Version | Previous Version | Text Only | Print | Product List | Glossary On
Versions: 1 2 3 4 5 6 7 8 9 10 11 12 13 14 15 16 17 18 19 20 21 22 23 24 25 26 27 28 29 30 31 32 33 34 35 36 37 38 39 40 41 42 43 44 45 46 47 48 49 50
000
ASUS43 KIWX 190410
RWRIWX

KIWX WEATHER ROUNDUP
NATIONAL WEATHER SERVICE NORTHERN INDIANA
1200 AM EDT SAT AUG 19 2017

NOTE: "FAIR" INDICATES FEW OR NO CLOUDS BELOW 12,000 FEET WITH NO
SIGNIFICANT WEATHER AND/OR OBSTRUCTIONS TO VISIBILITY.

* THESE STATIONS ARE NOT UNDER NWS QUALITY CONTROL. THEY ALSO MAY NOT
  REPORT WEATHER SUCH AS PRECIPITATION OR FOG.

INZ001>027-190500-
NORTHERN INDIANA

CITY           SKY/WX    TMP DP  RH WIND       PRES   REMARKS
GARY*          FAIR      69  63  81 W3        29.88F
VALPARAISO     MOCLDY    70  63  78 SW3       29.89F
MICHIGAN CITY* FAIR      63  63 100 CALM      29.89S
LAPORTE*       CLOUDY    66  63  91 CALM      29.90S
KNOX*          FAIR      63  61  94 SW5       29.89S
SOUTH BEND     CLOUDY    67  64  90 CALM      29.89F
GOSHEN         FAIR      68  61  78 NE3       29.90R
MONTICELLO*    FAIR      67  64  90 S3        29.90S
LOGANSPORT*    FAIR      64  63  94 SW5       29.92S
ROCHESTER*     FAIR      70  63  78 SW5       29.91S
WARSAW*        FAIR      64  63  94 W3        29.90S
AUBURN*        FAIR      64  61  88 CALM      29.91R
FORT WAYNE     FAIR      65  61  87 SW6       29.91R
HUNTINGTON*    FAIR      66  64  96 CALM      29.91S
PERU/GRISSOM   FAIR      66  65  96 SW8       29.91R
MARION*        FAIR      66  63  88 SW7       29.93S

$$
INZ028>050-190500-
CENTRAL INDIANA

CITY           SKY/WX    TMP DP  RH WIND       PRES   REMARKS
LAFAYETTE      FAIR      67  65  93 CALM      29.91S
KOKOMO*        FAIR      68  64  87 SW6       29.93R
MUNCIE*        FAIR      71  62  73 SW5       29.93R
INDIANAPOLIS   FAIR      70  63  78 SW7       29.93R

$$
MIZ043>046-050>051-056>058-064>065-071>073-077>080-190500-
SOUTHWEST LOWER MICHIGAN

CITY           SKY/WX    TMP DP  RH WIND       PRES   REMARKS
BATTLE CREEK   MOCLDY    64  61  90 S3        29.90R
BENTON HARBOR  FAIR      63  60  90 CALM      29.88S
COLDWATER*     CLOUDY    64  64 100 CALM      29.91R
HILLSDALE*     CLOUDY    61  59  94 CALM      29.90S
HOLLAND        MOCLDY    63  60  90 W3        29.88S
GRAND RAPIDS   MOCLDY    65  62  90 SW7       29.87S
KALAMAZOO      MOCLDY    64  59  83 S5        29.89S
STURGIS*       CLOUDY    65  63  93 MISG      29.89S
THREE RIVERS*  MOCLDY    66  62  86 CALM      29.90S

$$
OHZ001>008-015>018-024>025-190500-
NORTHWEST OHIO

CITY           SKY/WX    TMP DP  RH WIND       PRES   REMARKS
DEFIANCE       CLOUDY    66  62  87 CALM      29.90R
FINDLAY        FAIR      69  62  78 SW6       29.90R
TOLEDO EXPRESS MOCLDY    65  64  97 CALM      29.89R
TOLEDO METCALF MOCLDY    68  63  84 CALM      29.90R
LIMA           FAIR      67  64  90 SW5       29.92R

$$
AND FOR LAKE MICHIGAN COASTAL AND OPEN LAKE BUOY OBSERVATIONS

STATION/POSITION TEMP    WIND        PRES    VSBY  WAVE
                 AIR SEA DIR/SP/G                  HT/PER
                 (F)     (DEG/KT/KT) (MB)    (MI)  (FT/S)
CALUMET HARBOR    75     280/  4/  5 1011.1F
MICHIGAN CITY     71     130/  4/  5   N/A
BURNS HARBOR      75     240/  5/  7 1012.2F
SAINT JOSEPH      69     140/  1/  2 1012.2
SOUTH LAKE BUOY   72 71  260/  8/  8 1011.2R         1/ 4
4 MI NW BRIDGMAN  73 74  190/  4/  6 1011.4          2/ 5
MICHIGAN CITY     72 74  150/  4/  6   N/A           1/ 5

$$
&&




USA.gov is the U.S. government's official web portal to all federal, state and local government web resources and services.